Location: Eurasberg
(48.3353°N, 11.0839°E)
Time: 22:39:52
(UTC+00:00)

SL-12 R/B(2) - Visible Passes

Search period start: 18 April 2026 00:00
Search period end: 28 April 2026 00:00
Orbit: 1169 x 2180 km, 63.4° (Epoch: 18 April)

Date Brightness Start Highest point End Pass type
(mag) Time Alt. Az. Time Alt. Az. Time Alt. Az.
18 Apr 5.4 19:21:13 10° NW 19:32:03 65° WSW 19:44:24 10° SSE visible
18 Apr 6.7 21:27:26 10° WNW 21:34:45 20° W 21:42:34 10° SW visible
19 Apr 5.5 19:19:54 10° NW 19:30:40 60° WSW 19:42:53 10° SSE visible
19 Apr 6.8 21:26:38 10° WNW 21:33:10 17° W 21:40:04 10° SW visible
20 Apr 5.7 19:18:36 10° NW 19:29:16 55° WSW 19:41:19 10° S visible
20 Apr 6.9 21:26:02 10° WNW 21:31:34 15° W 21:37:20 10° SW visible
21 Apr 5.8 19:17:20 10° NW 19:27:51 50° WSW 19:39:41 10° S visible
21 Apr 7.0 21:25:48 10° WNW 21:29:56 12° W 21:34:13 10° WSW visible
22 Apr 6.0 19:16:03 10° NW 19:26:26 46° WSW 19:38:01 10° S visible
22 Apr 7.2 21:26:45 10° W 21:28:16 10° W 21:29:49 10° W visible
23 Apr 6.1 19:14:48 10° NW 19:24:59 42° WSW 19:36:18 10° S visible
24 Apr 6.3 19:13:34 10° NW 19:23:31 38° WSW 19:34:30 10° S visible
25 Apr 6.4 19:12:22 10° NW 19:22:02 34° WSW 19:32:39 10° SSW visible
26 Apr 6.6 19:11:12 10° NW 19:20:32 31° WSW 19:30:44 10° SSW visible
27 Apr 6.8 19:10:05 10° NW 19:19:01 28° WSW 19:28:43 10° SSW visible
